TimeCST,TemperatureF,Dew PointF,Humidity,Sea Level PressureIn,VisibilityMPH,Wind Direction,Wind SpeedMPH,Gust SpeedMPH,PrecipitationIn,Events,Conditions,WindDirDegrees,DateUTC
12:53 AM,23.0,9.0,55,30.20,10.0,SW,10.4,-,N/A,,Clear,220,2013-01-04 06:53:00
1:53 AM,23.0,9.0,55,30.18,10.0,SW,9.2,-,N/A,,Clear,220,2013-01-04 07:53:00
2:53 AM,21.9,8.1,55,30.19,10.0,SW,8.1,-,N/A,,Clear,230,2013-01-04 08:53:00
3:53 AM,23.0,8.1,53,30.17,10.0,SW,10.4,-,N/A,,Clear,230,2013-01-04 09:53:00
4:53 AM,21.9,7.0,53,30.18,10.0,Calm,Calm,-,N/A,,Clear,0,2013-01-04 10:53:00
5:53 AM,21.9,6.1,51,30.19,10.0,Calm,Calm,-,N/A,,Clear,0,2013-01-04 11:53:00
7:53 AM,18.0,6.1,60,30.20,10.0,SSW,4.6,-,N/A,,Clear,210,2013-01-04 13:53:00
8:53 AM,17.1,6.1,62,30.21,10.0,SW,6.9,-,N/A,,Clear,220,2013-01-04 14:53:00
9:53 AM,25.0,7.0,46,30.22,10.0,SW,6.9,-,N/A,,Clear,230,2013-01-04 15:53:00
10:53 AM,30.9,10.9,43,30.22,10.0,SSW,4.6,-,N/A,,Clear,210,2013-01-04 16:53:00
11:53 AM,34.0,14.0,44,30.20,10.0,SW,3.5,-,N/A,,Clear,230,2013-01-04 17:53:00
12:53 PM,37.0,18.0,46,30.16,10.0,Calm,Calm,-,N/A,,Clear,0,2013-01-04 18:53:00
1:53 PM,39.0,16.0,39,30.13,10.0,Calm,Calm,-,N/A,,Clear,0,2013-01-04 19:53:00
2:53 PM,37.9,16.0,41,30.12,10.0,Calm,Calm,-,N/A,,Clear,0,2013-01-04 20:53:00
3:53 PM,36.0,19.9,52,30.12,10.0,ENE,3.5,-,N/A,,Clear,70,2013-01-04 21:53:00
4:53 PM,34.0,18.0,52,30.13,10.0,ENE,4.6,-,N/A,,Clear,60,2013-01-04 22:53:00
5:53 PM,32.0,19.9,61,30.12,10.0,SE,5.8,-,N/A,,Clear,130,2013-01-04 23:53:00
6:53 PM,28.0,19.0,69,30.12,10.0,SSE,6.9,-,N/A,,Clear,160,2013-01-05 00:53:00
7:53 PM,25.0,17.1,72,30.11,10.0,South,6.9,-,N/A,,Clear,170,2013-01-05 01:53:00
8:53 PM,27.0,16.0,63,30.09,10.0,SSW,5.8,-,N/A,,Clear,210,2013-01-05 02:53:00
9:53 PM,25.0,16.0,69,30.09,10.0,WSW,9.2,-,N/A,,Clear,240,2013-01-05 03:53:00
10:53 PM,21.9,14.0,72,30.09,10.0,WSW,10.4,-,N/A,,Clear,250,2013-01-05 04:53:00
11:53 PM,19.9,14.0,78,30.09,10.0,WSW,8.1,-,N/A,,Clear,250,2013-01-05 05:53:00